Ravenna, OH

11:49 PM EST on February 07, 2016 (GMT -0500)
Ravenna

Weather History for KPOV - May, 2014

Change the Weather History Date:

Monday, May 12, 2014

  Actual Average (KCAK) Record (KCAK)
Temperature  
Mean Temperature 68 °F 58 °F  
Max Temperature 73 °F 68 °F 87 °F (1991)
Min Temperature 62 °F 47 °F 30 °F (1907)
Degree Days  
Heating Degree Days 0 8  
Month to date heating degree days 113  
Since 1 July heating degree days 5989  
Cooling Degree Days 2 1  
Month to date cooling degree days 6  
Year to date cooling degree days 12  
Growing Degree Days 18 (Base 50)    
Moisture  
Dew Point 63 °F    
Average Humidity 87    
Maximum Humidity 100    
Minimum Humidity 63    
Precipitation  
Precipitation 1.13 in 0.14 in 1.48 in (2014)
Month to date precipitation 1.57  
Year to date precipitation 13.02  
Snow  
Snow 0.00 in 0.00 in - ()
Month to date snowfall 0.1  
Since 1 July snowfall 47.5  
Snow Depth -    
Sea Level Pressure  
Sea Level Pressure 30.08 in    
Wind  
Wind Speed 3 mph (SSE)    
Max Wind Speed 15 mph    
Max Gust Speed 21 mph    
Visibility 9 miles    
Events Rain    
T = Trace of Precipitation, MM = Missing Value Source: NWS Daily Summary

Daily Weather History Graph

Daily Weather History Graph

Search for Another Location

Airport or City:

Trip Planner

Search our weather history database for the weather conditions in past years. The results will help you decide how hot, cold, wet, or windy it might be!

Date:

Astronomy

May. 12, 2014 Rise Set
Actual Time 6:09 AM EDT 8:33 PM EDT
Civil Twilight 5:38 AM EDT 9:04 PM EDT
Nautical Twilight 5:00 AM EDT 9:43 PM EDT
Astronomical Twilight 4:17 AM EDT 10:26 PM EDT
Moon 6:28 PM EDT (5/12) 4:49 AM EDT (5/12)
Length of Visible Light 15h 26m
Length of Day
14h 23m
Waxing Gibbous, 95% of the Moon is Illuminated
May 12
Waxing Gibbous
May 14
Full
May 21
Last Quarter
May 28
New
Jun 5
First Quarter

Hourly Weather History & Observations

Time (EDT) Temp. Dew Point Humidity Pressure Visibility Wind Dir Wind Speed Gust Speed Precip Events Conditions
12:16 AM 63.5 °F 54.7 °F 73% 30.07 in 10.0 mi Calm Calm - N/A   Clear
12:36 AM 64.6 °F 54.9 °F 71% 30.07 in 10.0 mi Calm Calm - N/A   Clear
12:56 AM 65.8 °F 55.6 °F 69% 30.08 in 10.0 mi South 3.5 mph - N/A   Clear
1:16 AM 66.0 °F 56.3 °F 71% 30.09 in 10.0 mi South 3.5 mph - N/A   Clear
1:36 AM 65.5 °F 56.7 °F 73% 30.08 in 10.0 mi SSW 5.8 mph - N/A   Clear
1:56 AM 65.1 °F 56.7 °F 74% 30.07 in 10.0 mi Calm Calm - N/A   Clear
2:16 AM 64.6 °F 56.5 °F 75% 30.07 in 10.0 mi Calm Calm - N/A   Clear
2:36 AM 62.2 °F 55.9 °F 80% 30.05 in 10.0 mi Calm Calm - N/A   Clear
2:56 AM 62.8 °F 57.0 °F 81% 30.05 in 10.0 mi Calm Calm - N/A   Clear
3:16 AM 62.8 °F 57.7 °F 84% 30.04 in 10.0 mi Calm Calm - N/A   Clear
3:36 AM 62.1 °F 58.1 °F 87% 30.04 in 10.0 mi Calm Calm - N/A   Clear
3:56 AM 62.6 °F 58.3 °F 86% 30.05 in 10.0 mi Calm Calm - N/A   Clear
4:16 AM 62.6 °F 58.6 °F 87% 30.05 in 10.0 mi South 3.5 mph - N/A   Clear
4:36 AM 62.6 °F 59.9 °F 91% 30.05 in 10.0 mi Calm Calm - N/A   Clear
4:56 AM 62.6 °F 60.4 °F 93% 30.05 in 10.0 mi Calm Calm - N/A   Clear
5:16 AM 62.6 °F 61.0 °F 94% 30.05 in 10.0 mi Calm Calm - N/A   Scattered Clouds
5:36 AM 62.6 °F 61.7 °F 97% 30.06 in 10.0 mi South 3.5 mph - N/A   Scattered Clouds
5:55 AM 62.6 °F 61.7 °F 97% 30.06 in 10.0 mi South 3.5 mph - N/A   Clear
6:16 AM 62.8 °F 61.5 °F 96% 30.07 in 10.0 mi SSW 3.5 mph - N/A   Scattered Clouds
6:36 AM 62.8 °F 62.2 °F 98% 30.08 in 7.0 mi SW 3.5 mph - N/A   Overcast
6:56 AM 62.6 °F 62.8 °F 100% 30.08 in 5.0 mi SW 4.6 mph - 0.03 in   Overcast
7:16 AM 62.6 °F 62.6 °F 100% 30.07 in 3.0 mi Calm Calm - 0.03 in   Overcast
7:36 AM 62.6 °F 62.8 °F 100% 30.08 in 10.0 mi Calm Calm - 0.03 in   Overcast
7:56 AM 62.6 °F 62.8 °F 100% 30.08 in 10.0 mi Calm Calm - 0.03 in   Overcast
8:16 AM 62.8 °F 63.0 °F 100% 30.08 in 10.0 mi Calm Calm - N/A   Overcast
8:36 AM - - N/A% 30.07 in 10.0 mi SSW 3.5 mph - N/A   Overcast
8:56 AM 63.5 °F 63.5 °F 100% 30.07 in 10.0 mi Calm Calm - N/A   Overcast
9:16 AM 63.7 °F 63.9 °F 100% 30.07 in 10.0 mi South 3.5 mph - N/A   Overcast
9:36 AM 65.7 °F 65.8 °F 100% 30.08 in 10.0 mi South 4.6 mph - N/A   Overcast
10:16 AM 67.1 °F 60.8 °F 80% 30.09 in 10.0 mi SW 5.8 mph - N/A   Overcast
10:36 AM 69.6 °F 61.7 °F 76% 30.09 in 10.0 mi SSW 5.8 mph - N/A   Scattered Clouds
10:56 AM 70.9 °F 61.3 °F 72% 30.09 in 10.0 mi SW 5.8 mph - N/A   Scattered Clouds
11:16 AM 70.3 °F 61.0 °F 72% 30.09 in 10.0 mi WSW 8.1 mph - N/A   Mostly Cloudy
11:36 AM 71.6 °F 60.1 °F 67% 30.09 in 10.0 mi SW 8.1 mph - N/A   Mostly Cloudy
11:56 AM 72.3 °F 60.6 °F 67% 30.08 in 10.0 mi WSW 4.6 mph - N/A   Mostly Cloudy
12:16 PM 72.9 °F 60.6 °F 65% 30.09 in 10.0 mi SSW 6.9 mph - N/A   Mostly Cloudy
12:36 PM 73.4 °F 60.3 °F 63% 30.10 in 10.0 mi WSW 10.4 mph 16.1 mph N/A   Mostly Cloudy
12:56 PM 73.4 °F 60.6 °F 64% 30.10 in 10.0 mi WSW 5.8 mph - N/A   Mostly Cloudy
1:16 PM 72.5 °F 60.6 °F 66% 30.10 in 10.0 mi WSW 5.8 mph - N/A   Mostly Cloudy
1:36 PM 72.5 °F 61.0 °F 67% 30.10 in 10.0 mi West 10.4 mph - N/A   Mostly Cloudy
1:56 PM 72.3 °F 61.2 °F 68% 30.10 in 10.0 mi WSW 6.9 mph - N/A   Mostly Cloudy
2:16 PM 69.8 °F 63.3 °F 80% 30.11 in 10.0 mi WSW 3.5 mph - 0.02 in Rain Rain
2:35 PM 68.5 °F 68.7 °F 100% 30.11 in 4.0 mi Calm Calm - 0.05 in Rain Light Rain
2:56 PM 68.2 °F 68.4 °F 100% 30.12 in 4.0 mi Calm Calm - 0.11 in Rain Heavy Rain
3:35 PM 66.6 °F 66.7 °F 100% 30.12 in 5.0 mi Calm Calm - 0.10 in Rain Rain
3:56 PM - - N/A% 30.11 in 10.0 mi East 3.5 mph - 0.10 in   Overcast
4:16 PM 67.3 °F 67.5 °F 100% 30.10 in 10.0 mi East 5.8 mph - N/A   Overcast
4:36 PM 68.2 °F 68.2 °F 100% 30.09 in 10.0 mi SE 3.5 mph - N/A   Overcast
4:56 PM 70.2 °F 70.3 °F 100% 30.07 in 10.0 mi ESE 5.8 mph - N/A   Scattered Clouds
5:16 PM 71.6 °F 65.1 °F 80% 30.07 in 10.0 mi ESE 5.8 mph - N/A   Clear
5:35 PM 70.3 °F 64.0 °F 80% 30.07 in 10.0 mi SE 3.5 mph - N/A   Clear
5:56 PM 70.7 °F 63.5 °F 78% 30.07 in 10.0 mi ESE 3.5 mph - N/A   Clear
6:16 PM 70.0 °F 63.3 °F 79% 30.06 in 10.0 mi ESE 6.9 mph - N/A   Clear
6:36 PM 69.4 °F 64.8 °F 85% 30.07 in 10.0 mi East 4.6 mph - N/A   Clear
6:56 PM 69.3 °F 66.6 °F 91% 30.07 in 10.0 mi ESE 4.6 mph - N/A   Clear
7:16 PM 69.1 °F 67.5 °F 95% 30.07 in 10.0 mi East 5.8 mph - N/A   Clear
7:36 PM - - N/A% 30.06 in 10.0 mi East 5.8 mph - N/A   Clear
7:56 PM 68.4 °F 68.5 °F 100% 30.06 in 10.0 mi ESE 5.8 mph - N/A   Mostly Cloudy
8:16 PM 68.4 °F 68.5 °F 100% 30.07 in 10.0 mi East 5.8 mph - N/A   Overcast
8:36 PM 68.2 °F 68.4 °F 100% 30.06 in 10.0 mi ESE 9.2 mph - N/A   Mostly Cloudy
8:55 PM 68.0 °F 68.0 °F 100% 30.06 in 10.0 mi East 8.1 mph - N/A   Mostly Cloudy
9:16 PM 67.5 °F 67.6 °F 100% 30.07 in 10.0 mi East 6.9 mph - N/A Rain Light Rain
9:36 PM 67.3 °F 67.5 °F 100% 30.09 in 5.0 mi NNE 9.2 mph - 0.06 in Rain Heavy Rain
9:55 PM 67.1 °F 67.3 °F 100% 30.12 in 4.0 mi North 15.0 mph 20.7 mph 0.18 in Rain Heavy Rain
10:16 PM 66.2 °F 66.4 °F 100% 30.11 in 2.0 mi East 8.1 mph - 0.34 in Rain Heavy Rain
10:36 PM 64.6 °F 64.8 °F 100% 30.07 in 3.0 mi SE 13.8 mph 17.3 mph 0.68 in Rain Rain
11:16 PM 63.0 °F 63.3 °F 100% 30.06 in 10.0 mi ESE 4.6 mph - N/A   Mostly Cloudy
11:36 PM 62.6 °F 62.8 °F 100% 30.07 in 10.0 mi Calm Calm - N/A   Scattered Clouds
11:56 PM 62.6 °F 63.1 °F 100% 30.06 in 10.0 mi Calm Calm - N/A   Scattered Clouds